Overview Statistics Trail Chart Weather Telemetry Raw packets
 

This is the latest recevied weather packets stored in our database for station/object WX4SGA. If no packets are shown the sender has not sent any weather packets the latest 10 day(s).

<< 22 23 24 25 26 27 28 >>
Time Temp. Humidity Pressure Rain* Wind** Luminosity Snow
1788463163 31.67° C 69% 1015.2 hPa 0 mm - 98 W/m² -
1788462860 32.22° C 68% 1015.2 hPa 0 mm - 111 W/m² -
1788462559 32.78° C 67% 1015.2 hPa 0 mm - 905 W/m² -
1788462253 32.78° C 65% 1015.2 hPa 0 mm - 823 W/m² -
1788461953 32.22° C 68% 1015.6 hPa 0 mm - 790 W/m² -
1788461648 31.67° C 69% 1015.9 hPa 0 mm - 781 W/m² -
1788461343 32.22° C 69% 1015.9 hPa 0 mm - 102 W/m² -
1788461041 33.89° C 66% 1015.9 hPa 0 mm - 267 W/m² -
1788460735 32.78° C 67% 1015.9 hPa 0 mm - 889 W/m² -
1788460429 32.22° C 67% 1015.9 hPa 0 mm - 835 W/m² -
1788460128 32.22° C 67% 1015.9 hPa 0 mm - 778 W/m² -
1788459827 31.67° C 69% 1015.9 hPa 0 mm - 760 W/m² -
1788459523 31.67° C 68% 1016.3 hPa 0 mm - 918 W/m² -
1788459218 32.22° C 65% 1016.3 hPa 0 mm - 210 W/m² -
1788458912 32.22° C 67% 1016.3 hPa 0 mm - 927 W/m² -
1788458611 32.78° C 66% 1016.3 hPa 0 mm - 893 W/m² -
1788458305 32.78° C 67% 1016.3 hPa 0 mm - 820 W/m² -
1788458004 32.22° C 68% 1016.3 hPa 0 mm - 859 W/m² -
1788457700 31.67° C 69% 1016.3 hPa 0 mm - 482 W/m² -
1788457394 32.22° C 69% 1016.6 hPa 0 mm - 942 W/m² -
1788457089 31.67° C 69% 1016.3 hPa 0 mm - 896 W/m² -
1788456785 30.56° C 73% 1016.6 hPa 0 mm - 865 W/m² -
1788456481 30.56° C 73% 1016.6 hPa 0 mm - 172 W/m² -
1788456175 31.67° C 70% 1016.9 hPa 0 mm - 187 W/m² -
1788455870 31.11° C 70% 1016.9 hPa 0 mm - 915 W/m² -

* Rain latest hour (hover to see other rain measurements)
** Current wind speed in m/s (hover to see current wind gust speed)